Location: Grums
(59.3529°N, 13.1129°E)
Time: 23:59:13
(UTC+01:00)

SEEDS - Pass Details

Date: 01 December 2021
Orbit: 584 x 600 km, 97.6° (Epoch: 27 January)

Event Time Altitude Azimuth Distance (km) Brightness Sun altitude
Rises 06:24:15 0° 11° (N) 2,832 ? -15.2°
Reaches altitude 10° 06:26:42 10° 358° (N) 1,925 ? -15.0°
Maximum altitude 06:30:05 25° 304° (NW) 1,215 ? -14.5°
Enters shadow 06:30:22 25° 297° (WNW) 1,221 ? -14.5°
